Location: Bow
(51.5261°N, 0.0167°W)
Time: 02:59:33
(UTC+00:00)

Cosmos 2233 Rocket - Pass Details

Date: 18 September 2020
Orbit: 952 x 991 km, 82.9° (Epoch: 18 October)

Event Time Altitude Azimuth Distance (km) Brightness Sun altitude
Rises 18:42:19 0° 185° (S) 3,669 7.0 -6.3°
Reaches altitude 10° 18:44:50 10° 185° (S) 2,720 6.3 -6.7°
Maximum altitude 18:51:04 85° 99° (E) 981 4.0 -7.7°
Drops below altitude 10° 18:57:17 10° 11° (N) 2,711 6.4 -8.6°
Sets 18:59:47 0° 11° (N) 3,657 7.1 -9.0°
